Погода в Зункаре

Россия / Ставропольский край     44°18′19″N   44°53′29″E
темп.,
°C
ветер,
м/с
пор.,
м/с
влажн.,
%
обл.,
%
осадки,
мм/ч
давл.,
гПа
погр.,
м
19 апреля, пн
пн1900:00+12вюв3380100 0.0 101654
03:00+13ююв3470100 0.1 101685
06:00+13в2272100 0.0 101635
09:00+17вюв3456100 0.0 1016346
12:00+19ссв4454100 0.0 1016715
15:00+21св3449100 0.0 10151212
18:00+19в585798 0.0 1013234
21:00+15в4563100 0.0 101590
20 апреля, вт
вт2000:00+14всв4664100 0.0 1014118
03:00+13в51266100 0.0 1012328
06:00+12вюв61468100 0.0 1011394
09:00+18вюв7105443 0.0 1009514
12:00+22в91147100 0.0 1008697
15:00+24вюв8943100 0.1 1006834
18:00+19вюв4764100 0.2 1007212
21:00+16всв3670100 0.2 1008140
21 апреля, ср
ср2100:00+14сз3480100 0.3 101075
03:00+15ссз81480100 1.0 1013812
06:00+13сз71367100 0.1 1015603
09:00+13сз51072100 0.1 1018636
12:00+14сз6867100 0.0 1018908
15:00+14ссз6862100 0.0 1019825
18:00+13ссз4768100 0.0 1020518
21:00+12зсз2373100 0.0 1022121
22 апреля, чт
чт2200:00+11зсз2374100 0.0 1022119
03:00+11зсз2280100 0.0 102255
06:00+11зсз1188100 0.6 102334
09:00+10с1291100 3.5 1024151
12:00+11юв0190100 1.6 1025233
15:00+11ссз1290100 3.7 1025224
18:00+11ссв0084100 0.2 102555
21:00+10ю2289100 0.2 102430
23 апреля, пт
пт2300:00+10з1189100 0.0 102422
03:00+10юз2390100 0.3 102354
06:00+9юз2390100 0.3 102395
09:00+11зюз2285100 1.1 1023212
12:00+15з0164100 0.1 1022752
15:00+18ссв124859 0.1 10211539
18:00+17ссв125924 0.0 102118
21:00+13ююв22645 0.0 102110